Helicity
10 2 15 43 91 118 117 107 140 73 82 258 296 221 217 210 222 183 190 177 170 126 123 167 130 110 149 134 202 186 173 148 202 153 139 109 130 106 134 100 64 100 76 50
18 7 6 15 61 84 171 151 138 92 112 226 243 228 198 189 195 204 200 188 160 150 124 137 157 105 187 148 176 183 157 167 208 171 135 153 123 115 134 138 109 59 59 41
-4 8 -2 -6 29 40 140 184 165 170 142 147 156 165 142 149 144 146 184 185 178 169 154 173 125 166 179 159 158 168 202 154 134 115 110 152 130 134 120 126 94 78 53 55
-0 10 3 -5 9 -7 136 191 193 174 146 150 149 121 153 106 139 119 132 171 184 188 169 177 143 189 188 205 161 207 178 153 156 151 130 118 99 95 118 96 112 62 37 56
10 15 -1 3 -0 10 128 227 210 232 152 120 93 123 115 117 148 138 138 160 228 162 166 142 107 143 169 183 203 208 217 165 189 180 117 104 110 71 60 63 66 33 34 9
34 25 16 1 11 66 101 153 82 150 151 123 116 117 100 85 104 125 95 146 133 157 160 150 162 111 110 88 146 165 179 161 166 139 136 115 99 48 81 78 75 62 50 42
33 45 36 10 7 71 90 116 138 161 155 190 139 122 50 74 104 70 107 138 160 129 52 48 155 203 160 163 178 191 207 225 207 153 167 157 93 88 52 107 73 101 58 59
32 41 54 40 5 47 92 85 116 168 131 153 160 202 133 92 69 110 136 150 151 119 184 197 176 197 192 232 224 199 217 262 243 188 181 183 129 81 76 60 51 117 101 88
46 49 59 65 35 24 104 67 85 105 130 116 134 135 139 115 98 99 112 142 102 172 205 219 181 189 180 169 206 240 211 224 218 218 177 124 80 99 95 79 45 43 55 117
41 47 37 55 67 14 108 70 73 73 82 109 89 144 170 157 146 95 105 124 160 148 185 222 225 191 183 139 145 239 270 271 237 260 189 180 103 88 59 113 57 73 45 51
36 50 43 35 28 27 69 116 83 58 63 100 71 95 114 85 152 164 151 132 186 271 206 197 225 195 202 189 152 240 285 290 279 270 226 132 85 169 100 80 77 61 69 37
31 42 43 41 39 17 61 90 120 89 48 29 35 71 100 43 27 114 194 187 162 167 176 202 219 206 245 229 202 254 216 244 229 135 143 141 56 122 87 98 90 74 64 38
34 33 42 46 39 35 35 107 168 155 60 14 21 6 32 86 27 14 91 172 168 206 263 173 211 211 231 188 199 238 250 245 200 185 134 84 86 61 53 23 63 86 76 51
17 27 42 43 42 44 38 127 177 197 98 34 13 26 7 25 68 24 57 73 118 95 211 234 179 168 169 183 197 184 205 205 205 219 173 115 80 42 40 108 94 70 49 39
-25 15 31 42 40 39 49 103 114 242 133 35 17 -24 10 19 13 -8 9 63 32 15 92 190 216 216 174 165 192 198 245 217 236 207 140 129 76 56 52 59 58 48 71 91
-31 -11 4 25 35 40 68 43 58 190 236 122 47 32 17 29 16 -11 16 26 33 25 -54 -33 86 122 261 171 123 110 135 147 166 136 97 105 107 68 75 50 46 45 60 76
-31 -20 -9 12 26 37 75 65 43 88 282 170 82 19 22 40 14 54 48 39 36 15 2 -76 29 -41 3 146 127 146 105 123 143 128 133 120 81 80 65 84 91 77 84 97
-30 -28 -19 -1 21 34 36 60 -2 59 229 241 137 30 46 39 27 22 22 80 65 28 60 4 -8 4 -26 -42 6 79 136 151 90 98 113 100 68 65 74 68 76 92 94 102
-7 -17 -18 50 62 65 40 38 111 260 270 193 111 93 39 60 55 34 17 20 50 26 8 54 9 -1 -14 -24 -41 5 74 79 78 74 74 77 105 80 80 67 64 78 88 107
24 50 79 16 69 108 60 120 186 123 155 188 95 152 101 72 54 49 19 -5 48 68 48 57 96 60 25 14 -5 2 27 42 65 77 109 93 88 76 86 96 90 96 99 111
122 170 145 128 32 174 87 86 192 161 157 84 76 151 173 101 70 52 36 40 43 68 62 161 156 42 19 60 102 98 69 77 83 82 57 83 92 95 98 85 87 108 118 121
190 178 274 185 148 130 110 168 176 77 64 -4 77 201 174 121 92 59 22 14 10 58 49 96 138 67 67 100 91 56 48 49 42 59 67 55 75 91 89 130 124 118 102 111
290 240 189 139 93 136 6 -14 67 32 32 107 247 242 138 116 98 84 41 10 -18 -15 -63 52 84 103 108 134 123 103 85 121 127 77 56 82 90 107 133 121 106 105 129 156
208 229 197 99 -17 -84 -85 33 31 109 239 211 106 164 126 97 122 103 52 6 -17 -52 4 56 70 43 61 100 140 167 123 111 169 73 67 110 94 110 134 86 59 111 132 165
249 212 -24 -93 -26 58 80 67 112 153 153 228 251 273 221 189 136 128 133 59 -17 -23 -47 28 30 3 78 44 100 140 75 70 106 105 42 41 132 131 103 101 109 94 147 169
207 92 -24 57 -3 122 162 140 143 181 213 235 299 197 163 206 255 238 220 127 16 -134 -59 -25 -172 -92 93 9 97 37 77 90 82 80 120 112 136 128 130 143 160 179 149 125
69 19 166 53 58 45 111 105 95 187 258 295 255 242 242 192 213 190 113 85 26 -64 -99 -121 -179 -128 171 82 -50 49 80 65 78 114 129 154 125 136 148 166 146 134 123 136
Wind_Speed
61 57 56 55 54 51 45 42 53 39 29 46 53 68 58 52 54 45 47 47 50 49 47 46 47 47 47 38 34 39 38 32 31 34 35 29 33 29 29 34 32 31 31 34
62 55 53 53 51 42 42 47 49 39 36 63 67 61 64 61 56 55 49 50 49 47 47 52 48 46 43 35 38 38 36 37 34 37 39 33 38 34 34 26 27 24 23 29
62 55 50 51 47 39 37 44 52 48 46 51 59 67 68 72 60 61 55 51 49 49 51 50 46 43 41 40 42 40 37 42 44 41 40 27 33 29 27 33 35 28 29 24
59 59 48 48 44 35 36 41 48 47 53 63 63 60 60 71 70 60 55 59 53 52 55 54 50 44 41 42 38 43 42 48 45 38 33 28 28 21 22 26 37 29 34 11
60 56 49 43 43 37 39 44 47 44 51 50 57 68 72 72 62 63 69 65 53 55 53 56 60 48 48 47 45 45 45 48 44 49 41 40 43 35 21 32 43 51 39 34
61 56 51 42 38 29 39 40 42 44 49 53 57 65 71 68 65 57 63 58 68 62 54 50 53 50 45 46 48 48 48 45 45 55 44 45 63 49 32 39 39 32 20 17
61 58 51 43 38 30 39 42 43 48 56 49 53 58 63 70 67 68 49 54 61 57 40 39 38 37 43 45 46 46 47 46 47 48 40 62 50 39 35 37 48 25 43 30
60 58 54 49 41 31 38 40 45 49 57 54 54 55 64 64 62 71 70 62 49 49 52 57 57 55 54 55 49 49 49 48 51 55 57 55 55 43 34 31 54 21 25 30
57 55 51 49 45 41 35 39 39 47 54 57 54 53 57 63 64 60 64 55 44 42 54 64 77 76 61 63 56 49 47 49 58 55 66 68 51 42 33 26 60 38 15 18
56 54 50 50 46 41 40 40 35 44 58 55 54 57 52 50 54 58 50 54 61 53 62 72 78 85 61 70 67 63 58 59 66 62 66 62 46 33 20 38 44 34 34 18
54 55 53 49 44 44 42 45 34 41 52 60 52 55 58 51 52 58 48 50 57 59 69 72 74 77 78 70 63 66 66 62 66 63 73 81 34 29 41 38 35 37 38 26
53 55 55 54 50 44 37 46 40 39 49 52 51 63 59 57 51 55 53 55 51 55 62 71 66 74 70 76 84 64 77 66 67 61 67 47 30 43 43 41 41 41 40 36
56 56 56 56 55 51 41 41 33 39 51 59 61 64 64 61 65 47 57 55 49 48 50 57 68 73 69 80 84 71 72 62 64 57 62 56 51 54 53 50 56 51 45 36
61 60 58 57 56 56 47 42 37 39 44 57 58 49 53 53 60 66 63 64 56 54 56 65 68 74 62 79 69 78 68 61 68 70 58 51 58 56 51 56 55 53 47 39
48 66 66 62 58 58 55 45 44 38 46 50 50 50 50 54 55 64 72 74 71 64 58 63 73 67 66 69 71 85 69 68 71 73 60 59 46 40 45 57 59 53 48 43
44 51 59 65 61 54 44 50 49 40 37 50 61 50 53 50 51 59 73 71 67 66 65 61 60 58 65 81 92 85 74 70 66 67 56 57 56 47 47 52 52 49 46 44
39 46 44 63 64 57 48 45 39 8 22 44 55 57 47 45 49 53 60 64 66 67 70 77 71 61 56 69 96 71 72 77 72 64 54 60 57 56 52 53 52 48 46 41
39 41 44 59 65 63 63 59 40 19 32 35 48 52 51 40 49 53 47 60 68 75 76 72 78 71 73 90 85 85 86 79 76 68 68 65 60 61 61 53 49 49 46 39
27 33 21 51 51 53 59 29 8 27 34 37 48 57 55 38 46 46 47 48 67 69 86 90 75 86 94 88 76 73 69 74 75 73 71 70 68 67 63 58 54 53 48 41
29 23 13 5 38 15 10 26 34 33 42 41 54 42 46 35 40 45 49 50 62 74 86 74 92 116 112 92 84 80 77 76 71 79 80 74 73 68 67 65 61 56 49 42
44 30 21 26 9 25 40 40 36 42 39 46 48 25 40 33 47 51 48 55 54 71 74 78 91 122 111 98 90 82 79 75 74 77 79 73 70 67 66 66 61 55 49 42
42 21 17 24 32 34 39 38 47 56 62 59 48 23 19 36 34 43 45 55 54 66 50 69 95 112 88 83 84 83 87 89 89 82 80 78 76 73 70 66 62 55 49 45
36 30 25 40 45 36 16 32 68 69 58 20 11 26 16 19 32 42 46 55 65 63 68 70 83 90 85 83 75 72 67 69 74 75 68 68 69 61 56 53 51 52 54 51
41 26 33 28 29 64 63 71 67 61 14 4 3 11 20 19 30 40 52 57 56 67 72 72 67 73 76 79 83 80 77 72 70 77 72 67 66 63 58 64 67 60 54 47
42 48 72 71 63 56 63 53 42 34 5 0 17 25 23 21 37 41 44 54 64 65 73 62 57 63 70 84 82 84 80 67 60 67 71 73 68 68 65 56 49 47 46 43
48 58 60 58 27 54 43 36 28 13 3 14 25 30 30 28 35 44 52 59 69 56 48 56 66 77 79 76 72 77 74 65 59 60 63 65 65 67 64 56 51 46 43 44
59 63 39 1 7 12 9 14 15 8 7 18 18 21 27 30 46 58 61 82 79 76 72 66 71 75 78 73 66 61 62 62 59 56 59 64 59 54 54 56 54 52 47 45
Wind_Direction
309 309 309 307 306 304 297 289 277 290 274 256 257 253 256 262 262 268 267 265 260 256 253 252 253 253 255 245 237 244 254 264 258 263 280 278 275 277 272 278 287 294 306 307
307 308 309 306 306 308 295 281 277 288 271 256 255 260 257 258 259 259 264 262 259 259 254 254 254 255 257 246 240 238 243 257 255 264 275 279 271 269 269 283 292 296 308 314
303 305 306 305 303 307 294 284 274 273 266 265 260 255 255 252 257 258 260 262 262 256 254 256 252 252 255 252 246 248 244 255 257 260 273 276 270 262 260 268 277 287 293 318
303 298 300 302 299 304 298 281 276 273 267 258 257 256 259 252 251 255 257 255 257 255 253 250 253 251 251 251 247 247 250 253 255 265 275 281 283 267 241 254 272 283 295 298
300 296 296 299 298 294 288 279 274 281 271 268 257 252 252 251 253 252 250 250 255 255 255 253 249 249 248 247 247 247 251 255 256 258 267 273 274 275 263 264 269 271 285 293
294 295 293 291 297 294 285 283 283 279 276 265 258 255 250 252 251 258 254 257 251 253 254 260 260 252 252 251 244 244 245 248 253 255 263 268 265 265 264 269 270 272 269 281
291 291 292 288 288 290 283 283 280 274 266 273 263 261 254 251 252 250 259 257 253 255 261 261 264 260 253 250 251 250 244 244 254 258 257 260 270 279 271 266 272 256 275 285
291 289 287 287 279 283 283 278 275 273 266 268 270 264 256 255 257 252 252 255 260 259 251 250 249 249 249 248 251 249 248 245 251 253 256 270 266 270 274 272 272 246 207 275
292 288 287 286 282 275 277 280 276 271 268 263 266 268 260 254 253 256 252 255 256 259 250 244 241 240 244 244 245 251 248 250 249 253 254 256 270 273 276 283 271 286 247 241
290 286 285 283 284 277 269 279 276 273 264 267 266 262 265 266 259 256 257 253 249 251 247 244 243 241 247 243 240 240 243 247 246 251 256 263 268 280 270 270 277 295 294 273
289 284 282 281 281 278 269 269 271 273 270 266 268 266 262 268 264 254 258 254 249 247 243 244 244 245 242 245 245 241 241 242 248 253 253 253 270 263 267 281 285 289 295 298
287 283 279 276 277 278 275 273 265 272 273 274 276 267 266 264 268 262 257 256 257 250 247 246 250 247 245 243 244 248 244 247 249 253 258 273 264 271 268 276 280 284 291 299
283 281 277 274 271 272 273 275 265 269 273 277 275 269 266 262 258 265 256 256 262 257 260 257 251 250 247 244 245 247 248 251 253 258 261 265 267 266 270 274 269 275 285 294
273 271 271 270 269 266 271 272 266 266 274 271 276 284 277 269 260 254 256 259 264 269 268 256 253 251 254 249 253 247 250 246 250 256 264 269 265 267 266 269 271 273 277 284
209 236 254 261 262 262 266 273 268 260 264 270 274 286 281 271 265 257 253 254 255 258 262 257 251 255 255 254 254 248 247 248 247 254 258 262 270 268 270 270 271 272 273 277
201 206 216 238 248 259 270 271 268 258 270 269 269 284 281 276 269 261 251 252 255 254 255 259 260 259 257 251 249 251 252 252 254 258 263 262 266 272 273 274 276 273 274 271
194 196 195 221 241 251 261 265 274 252 264 270 268 275 283 279 273 266 259 253 253 255 256 253 257 258 257 256 247 255 255 252 254 257 261 261 263 265 272 272 275 276 274 273
192 188 190 210 242 248 251 254 267 275 272 276 263 274 278 279 272 268 269 258 253 252 253 255 253 257 256 253 254 256 256 256 255 255 255 260 264 265 269 272 274 273 270 268
205 179 173 259 259 257 247 275 214 264 272 265 270 268 272 284 274 276 274 268 257 255 250 249 253 251 248 251 253 253 258 256 257 258 258 258 260 263 264 266 268 269 267 263
214 238 258 226 265 268 282 266 250 264 264 279 271 273 269 285 277 274 273 270 262 257 252 252 251 247 248 254 256 257 257 261 260 255 255 257 259 259 261 264 265 265 264 259
225 235 244 272 135 259 249 254 252 251 267 260 262 280 276 293 277 273 277 270 271 260 256 248 250 246 247 249 251 254 258 260 259 260 259 258 258 259 262 265 263 262 261 258
215 229 243 242 253 255 250 251 248 240 242 228 260 293 291 287 293 283 278 270 268 258 280 255 250 247 252 250 250 252 253 256 257 258 258 256 258 261 263 262 260 259 259 258
210 234 244 239 246 254 194 173 220 214 212 162 306 297 357 309 294 284 276 269 262 274 263 267 259 255 252 250 250 250 254 256 255 256 256 255 256 259 259 254 258 264 262 258
223 230 225 241 191 187 186 212 221 230 289 135 143 338 347 332 296 290 272 273 274 260 256 258 272 271 261 254 251 249 250 255 254 250 252 255 254 257 258 260 262 262 260 258
221 219 189 189 202 232 232 245 259 271 286 179 305 307 313 319 299 293 279 272 265 256 252 263 280 294 285 259 254 246 246 250 251 248 247 250 253 255 259 261 260 258 258 258
221 215 204 216 157 238 256 267 277 291 283 304 310 302 304 298 302 286 272 266 257 252 269 280 289 291 288 265 254 243 243 248 251 248 248 251 253 254 256 257 254 254 260 261
215 211 256 104 237 172 259 285 286 265 228 291 305 299 300 311 287 272 265 242 241 242 262 279 294 292 284 259 251 244 244 245 251 253 253 253 255 256 255 252 253 255 262 264